Weather History for KFSM - January, 2014

Change the Weather History Date:

Friday, January 10, 2014

  Actual Average Record
Temperature  
Mean Temperature 46 °F 39 °F  
Max Temperature 57 °F 49 °F 75 °F (1990)
Min Temperature 35 °F 29 °F -8 °F (1977)
Degree Days  
Heating Degree Days 19 26  
Month to date heating degree days 324 260  
Since 1 July heating degree days 1711 1559  
Moisture  
Dew Point 42 °F    
Average Humidity 90    
Maximum Humidity 100    
Minimum Humidity 80    
Precipitation  
Precipitation 0.44 in 0.08 in 2.34 in (1913)
Month to date precipitation 0.79 0.88  
Year to date precipitation 0.79 0.88  
Sea Level Pressure  
Sea Level Pressure 29.79 in    
Wind  
Wind Speed 8 mph (NE)    
Max Wind Speed 16 mph    
Max Gust Speed 21 mph    
Visibility 4 miles    
Events Fog , Rain    
T = Trace of Precipitation, MM = Missing Value Source: NWS Daily Summary

Daily Weather History Graph

Daily Weather History Graph

Search for Another Location

Airport or City:

Trip Planner

Search our weather history database for the weather conditions in past years. The results will help you decide how hot, cold, wet, or windy it might be!

Date:

Astronomy

Jan. 10, 2014 Rise Set
Actual Time 7:26 AM CST 5:23 PM CST
Civil Twilight 6:58 AM CST 5:51 PM CST
Nautical Twilight 6:27 AM CST 6:22 PM CST
Astronomical Twilight 5:56 AM CST 6:53 PM CST
Moon 1:25 PM CST (1/10) 2:38 AM CST (1/10)
Length of Visible Light 10h 52m
Length of Day
9h 57m
Waxing Gibbous, 75% of the Moon is Illuminated
Jan 10
Waxing Gibbous
Jan 15
Full
Jan 23
Last Quarter
Jan 30
New
Feb 6
First Quarter

Hourly Weather History & Observations

Time (CST) Temp. Windchill Dew Point Humidity Pressure Visibility Wind Dir Wind Speed Gust Speed Precip Events Conditions
12:34 AM 35.6 °F 29.2 °F 33.8 °F 93% 30.07 in 1.5 mi East 8.1 mph - N/A   Overcast
12:53 AM 35.1 °F 28.6 °F 33.1 °F 92% 30.08 in 1.2 mi ENE 8.1 mph - N/A   Overcast
1:53 AM 35.1 °F 27.9 °F 33.1 °F 92% 30.06 in 1.0 mi ENE 9.2 mph - N/A   Overcast
2:53 AM 35.1 °F 27.4 °F 34.0 °F 96% 30.02 in 1.2 mi ENE 10.4 mph - N/A   Overcast
3:53 AM 35.1 °F 27.4 °F 34.0 °F 96% 29.99 in 1.0 mi ENE 10.4 mph - N/A   Overcast
4:53 AM 36.0 °F 29.0 °F 34.0 °F 93% 29.97 in 1.2 mi East 9.2 mph - 0.00 in Rain Light Rain
5:37 AM 35.6 °F 28.6 °F 33.8 °F 93% 29.95 in 2.0 mi ENE 9.2 mph - 0.00 in   Overcast
5:53 AM 36.0 °F 28.0 °F 35.1 °F 97% 29.95 in 2.0 mi ENE 11.5 mph - 0.00 in   Overcast
6:53 AM 37.0 °F 29.8 °F 36.0 °F 96% 29.93 in 2.5 mi NE 10.4 mph - N/A   Overcast
7:53 AM 37.0 °F 29.8 °F 36.0 °F 96% 29.89 in 2.0 mi ENE 10.4 mph - N/A   Overcast
8:03 AM 37.4 °F 32.1 °F 35.6 °F 93% 29.87 in 1.5 mi NE 6.9 mph - N/A   Overcast
8:17 AM 37.4 °F 31.4 °F 37.4 °F 100% 29.86 in 0.8 mi ENE 8.1 mph - N/A   Mist
8:45 AM 39.2 °F 32.5 °F 39.2 °F 100% 29.85 in 1.2 mi East 10.4 mph - N/A   Overcast
8:53 AM 41.0 °F 35.8 °F 39.0 °F 93% 29.87 in 1.8 mi East 8.1 mph - N/A   Overcast
9:02 AM 41.0 °F 34.3 °F 39.2 °F 93% 29.86 in 2.5 mi East 11.5 mph - N/A   Overcast
9:53 AM 42.1 °F 37.1 °F 39.9 °F 92% 29.86 in 2.0 mi ENE 8.1 mph - 0.01 in   Overcast
10:09 AM 42.8 °F 39.3 °F 41.0 °F 93% 29.85 in 2.0 mi NNE 5.8 mph - 0.00 in Rain Light Rain
10:38 AM 42.8 °F 38.0 °F 41.0 °F 93% 29.83 in 2.0 mi NNE 8.1 mph - 0.00 in Rain Light Rain
10:53 AM 43.0 °F 38.8 °F 41.0 °F 93% 29.84 in 2.0 mi North 6.9 mph - 0.03 in Rain Light Rain
11:01 AM 42.8 °F 39.3 °F 41.0 °F 93% 29.83 in 2.5 mi NNE 5.8 mph - 0.01 in Rain Light Rain
11:10 AM 42.8 °F 40.1 °F 42.8 °F 100% 29.83 in 1.0 mi NE 4.6 mph - 0.04 in Rain Heavy Rain
11:27 AM 44.6 °F 40.7 °F 42.8 °F 93% 29.81 in 1.5 mi ENE 6.9 mph - 0.13 in Rain Light Rain
11:36 AM 44.6 °F 41.4 °F 42.8 °F 93% 29.80 in 2.0 mi NE 5.8 mph - 0.14 in Rain Rain
11:53 AM 45.0 °F 41.8 °F 44.1 °F 97% 29.78 in 3.0 mi NE 5.8 mph - 0.17 in Rain Light Rain
12:00 PM 44.6 °F 40.7 °F 44.6 °F 100% 29.77 in 2.5 mi NE 6.9 mph - 0.00 in Rain Light Rain
12:49 PM 48.2 °F - 46.4 °F 93% 29.75 in 1.8 mi ENE 3.5 mph - 0.04 in Rain Light Rain
12:53 PM 48.0 °F - 46.0 °F 93% 29.74 in 1.8 mi ENE 5.8 mph - 0.04 in Rain Light Rain
1:53 PM 48.9 °F - 46.9 °F 93% 29.70 in 1.0 mi ENE 5.8 mph - 0.07 in Rain Light Rain
2:35 PM 50.0 °F - 48.2 °F 94% 29.67 in 3.0 mi East 8.1 mph - 0.06 in Rain Light Rain
2:53 PM 53.1 °F - 52.0 °F 96% 29.65 in 10.0 mi SE 3.5 mph - 0.08 in Rain Light Rain
3:53 PM 54.0 °F - 52.0 °F 93% 29.61 in 10.0 mi NNE 4.6 mph - 0.00 in   Overcast
4:43 PM 50.0 °F - 48.2 °F 94% 29.63 in 1.8 mi North 6.9 mph - N/A   Scattered Clouds
4:48 PM 50.0 °F - 48.2 °F 94% 29.63 in 0.2 mi NNE 6.9 mph - N/A Fog Fog
4:53 PM 50.0 °F - 48.9 °F 96% 29.64 in 0.2 mi NNE 5.8 mph - N/A Fog Fog
4:59 PM 51.8 °F - 50.0 °F 94% 29.64 in 1.2 mi NE 5.8 mph - N/A   Mostly Cloudy
5:02 PM 51.8 °F - 50.0 °F 94% 29.64 in 3.0 mi NE 5.8 mph - N/A   Mostly Cloudy
5:12 PM 51.8 °F - 48.2 °F 88% 29.64 in 1.8 mi NE 8.1 mph - N/A   Overcast
5:43 PM 50.0 °F - 48.2 °F 94% 29.63 in 7.0 mi East 4.6 mph - N/A   Overcast
5:53 PM 48.9 °F - 48.0 °F 97% 29.63 in 4.0 mi ENE 5.8 mph - N/A   Mostly Cloudy
6:32 PM 50.0 °F - 48.2 °F 94% 29.64 in 5.0 mi Calm Calm - 0.01 in   Mostly Cloudy
6:41 PM 50.0 °F - 48.2 °F 94% 29.65 in 1.5 mi Calm Calm - 0.01 in   Scattered Clouds
6:49 PM 48.2 °F - 48.2 °F 100% 29.65 in 0.5 mi Calm Calm - 0.01 in Fog Fog
6:53 PM 48.9 °F - 48.0 °F 97% 29.68 in 0.5 mi WNW 15.0 mph 20.7 mph 0.01 in Fog Fog
7:00 PM 51.8 °F - 50.0 °F 94% 29.67 in 2.0 mi WNW 6.9 mph 20.7 mph N/A   Mostly Cloudy
7:07 PM 51.8 °F - 50.0 °F 94% 29.67 in 8.0 mi West 8.1 mph - 0.00 in Rain Light Rain
7:53 PM 51.1 °F - 46.9 °F 86% 29.70 in 10.0 mi West 9.2 mph - 0.03 in   Mostly Cloudy
8:53 PM 48.0 °F - 42.1 °F 80% 29.74 in 10.0 mi West 11.5 mph - N/A   Clear
9:53 PM 42.1 °F 37.7 °F 41.0 °F 96% 29.76 in 10.0 mi SW 6.9 mph - N/A   Clear
10:53 PM 39.0 °F - 35.1 °F 86% 29.76 in 10.0 mi Calm Calm - N/A   Clear
11:53 PM 39.0 °F 36.8 °F 36.0 °F 89% 29.75 in 10.0 mi West 3.5 mph - N/A   Clear